Wetbulb
52.84 52.67 52.67 52.88 52.84 52.84 52.69 52.20 51.91 51.84 51.99 52.41 52.64 52.88 53.13 53.16 53.06 51.61 45.62 46.65 44.44 40.98 42.72 47.18 48.69 45.51 44.81 43.97 41.59 46.28 47.65 49.73 49.80 46.40 44.00 44.77 46.50 49.04 45.44 46.78 45.83 45.00 43.10 42.21 41.24 40.00 39.70 54.39 54.68 48.59 51.10 55.74 56.71 57.44
52.30 52.39 52.53 52.86 52.96 52.92 52.67 52.20 52.22 51.78 51.69 52.03 52.62 52.58 52.65 52.79 53.28 53.29 45.24 47.33 48.20 42.99 42.67 46.16 49.28 51.29 51.08 48.47 45.51 44.17 47.50 48.37 50.92 49.24 48.69 47.75 47.03 47.28 47.06 43.73 48.03 44.70 47.79 46.14 45.75 45.14 50.10 53.10 53.10 56.41 57.18 55.37 57.24 57.52
52.03 52.39 52.53 52.57 52.82 52.86 52.51 52.59 51.97 51.72 51.71 51.82 52.34 52.92 52.85 52.64 53.21 52.74 49.07 49.37 45.70 43.29 42.65 41.26 43.68 48.34 50.00 50.77 51.75 42.18 43.68 51.11 52.16 52.80 50.00 48.13 44.26 46.80 43.79 44.61 47.32 50.15 51.69 47.77 48.32 51.47 52.53 54.81 57.13 57.35 58.70 57.95 58.76 59.46
51.79 52.06 52.22 52.43 52.47 52.68 52.82 52.84 52.18 51.80 51.84 51.78 52.17 52.36 52.84 53.09 53.21 53.27 49.51 48.13 47.68 43.31 38.11 39.99 49.58 47.77 51.12 49.38 50.10 51.12 47.44 52.91 53.57 51.48 48.43 47.61 46.07 49.02 44.85 45.28 46.65 50.29 51.13 49.06 49.07 50.99 52.64 54.52 56.78 58.87 58.99 60.18 59.07 58.55
51.78 51.89 52.14 52.19 52.33 52.51 52.61 52.74 52.35 52.26 52.18 52.32 52.43 52.67 52.84 52.96 53.20 52.43 50.38 50.08 49.65 43.31 37.40 40.70 46.39 48.78 49.71 48.43 49.48 49.76 48.98 43.50 47.62 46.60 48.01 47.00 48.83 49.88 49.05 48.47 46.81 52.16 50.09 47.81 46.82 51.13 50.81 52.61 57.15 58.82 56.77 56.75 57.74 57.59
51.66 51.73 51.92 51.94 52.16 52.33 52.60 52.64 51.97 51.72 51.81 52.31 52.60 52.88 53.09 52.82 52.77 48.74 41.27 47.91 50.30 49.21 42.74 39.27 45.29 49.06 51.61 49.42 48.61 47.42 47.74 42.95 43.59 43.29 43.44 47.74 51.30 49.57 46.24 44.96 50.51 52.82 53.34 52.66 51.16 53.18 54.05 55.43 57.15 58.97 57.36 57.93 59.12 61.14
51.49 51.53 51.82 51.92 52.00 52.18 52.19 52.33 51.76 51.58 51.93 52.94 53.24 53.07 53.10 52.63 50.61 44.30 42.79 48.33 49.99 46.98 45.12 44.12 43.74 49.90 51.33 48.58 45.79 44.99 45.88 44.34 43.63 42.85 43.41 45.30 49.94 51.68 49.90 47.55 53.20 53.21 55.02 54.12 56.62 56.07 53.80 55.34 54.43 57.88 59.05 59.96 58.72 61.23
51.16 51.41 51.61 51.73 51.88 52.04 52.15 52.23 52.11 52.75 53.29 53.55 53.29 53.23 53.11 52.19 51.22 45.52 47.18 50.93 49.17 45.21 49.27 46.68 43.79 47.02 50.70 49.10 47.94 51.04 42.94 42.72 43.19 42.77 45.22 43.26 48.50 50.94 46.78 49.16 51.63 53.38 54.94 55.03 55.89 56.50 55.10 56.13 57.24 58.20 59.27 59.90 59.35 58.63
51.22 51.26 51.34 51.37 51.61 51.61 51.82 51.95 52.27 52.83 53.19 52.90 52.23 51.92 48.74 47.87 45.50 48.65 55.20 53.21 48.73 47.23 43.23 43.96 41.19 41.04 47.18 46.39 50.70 51.50 50.95 42.56 47.39 45.31 44.43 46.00 43.23 43.75 48.26 49.16 50.77 53.04 54.60 55.12 56.08 56.44 56.34 56.26 57.06 57.36 59.10 58.21 57.85 57.78
50.95 51.02 51.04 51.16 51.29 51.43 51.49 51.77 52.12 52.59 52.43 52.16 48.42 47.61 47.02 48.10 53.07 55.10 48.95 44.78 43.92 45.11 44.21 41.10 42.47 40.36 42.82 47.06 50.67 51.41 51.00 46.60 43.59 46.27 48.43 45.46 43.59 46.22 50.33 51.15 50.66 53.25 55.45 56.60 54.21 52.98 53.82 55.24 55.53 55.86 56.75 58.38 58.66 58.16
50.79 50.90 50.94 51.16 51.24 51.35 51.25 51.57 51.91 52.07 50.02 45.79 43.10 42.06 46.12 50.58 48.69 46.73 44.03 45.58 44.26 43.14 44.65 44.36 47.53 43.07 49.18 44.63 44.28 46.46 43.88 46.10 42.57 44.72 45.44 42.53 42.82 47.75 51.18 52.58 54.13 52.94 55.19 57.36 56.64 56.54 55.79 56.71 55.60 55.05 56.92 58.33 58.26 57.73
50.83 50.73 50.84 50.82 51.12 51.25 51.28 51.67 51.82 47.03 44.70 45.90 47.29 49.15 46.92 45.22 46.02 43.47 43.91 45.20 44.79 44.01 49.49 47.77 49.69 49.85 48.12 48.85 45.50 44.68 41.64 42.53 39.46 46.59 44.03 41.21 45.31 48.36 50.94 53.87 54.85 53.85 54.54 56.40 57.91 57.02 56.36 56.18 56.17 56.53 56.94 56.70 56.67 56.74
50.59 50.55 50.61 50.65 50.86 51.26 52.10 52.01 52.17 51.77 50.46 49.71 46.92 44.65 44.19 43.94 40.24 42.35 40.66 42.97 45.15 48.28 48.48 47.14 45.77 45.84 47.41 47.81 44.70 43.44 40.71 39.75 45.78 42.12 41.62 43.90 48.14 50.86 53.91 55.01 54.86 55.80 57.28 58.02 57.26 56.99 56.61 56.43 56.97 57.00 56.27 56.97 57.10 56.25
50.40 50.36 50.42 50.53 50.94 51.56 51.85 51.24 51.35 50.33 47.75 43.68 44.78 38.46 44.43 42.49 42.80 43.93 45.06 45.66 50.00 49.98 47.12 46.40 46.44 43.93 44.38 43.81 43.64 41.54 43.13 44.00 39.20 37.93 40.37 44.97 47.55 50.74 54.18 55.80 54.59 55.13 57.69 57.48 55.86 55.95 56.30 56.47 56.16 56.84 58.12 57.88 56.82 55.88
50.36 50.43 50.58 50.36 51.52 51.47 50.74 50.95 51.15 49.47 46.36 44.40 47.03 41.72 44.98 47.98 48.16 48.43 49.17 47.50 48.87 50.36 47.48 47.83 47.41 45.97 43.37 42.06 42.66 42.25 39.78 39.30 41.24 41.24 44.71 46.89 49.28 50.83 52.47 53.77 55.19 55.62 56.34 55.74 55.72 55.91 56.21 56.36 56.00 55.46 56.04 56.12 56.38 56.27
50.51 49.92 48.03 51.07 50.96 50.52 50.69 50.25 49.90 48.65 47.46 45.51 43.66 42.78 47.63 43.62 44.11 45.10 45.57 45.67 47.64 46.98 46.41 45.13 42.08 41.04 41.81 40.70 39.36 40.02 39.83 39.16 41.97 45.17 47.20 48.35 49.08 51.19 53.59 52.57 55.80 56.22 56.00 56.34 57.07 56.86 56.59 55.85 55.70 55.35 55.48 55.57 55.86 55.99
49.85 44.85 49.48 50.35 49.94 50.33 50.88 48.15 50.09 48.93 48.12 46.11 44.69 48.16 48.51 45.85 44.50 45.19 46.57 48.60 49.86 47.79 44.92 46.62 43.18 40.81 41.68 38.61 38.08 41.09 40.25 42.64 44.76 46.55 47.54 48.13 48.89 49.52 53.49 55.34 55.76 55.88 55.78 56.33 56.29 56.01 56.60 56.89 55.46 54.68 54.38 55.06 55.19 55.27
44.96 45.27 48.79 49.45 49.96 49.79 47.34 47.67 47.27 47.79 46.07 47.19 45.49 48.27 49.47 46.71 45.54 47.16 50.00 50.88 49.14 47.25 47.07 45.45 47.02 43.45 42.29 39.86 39.70 42.47 44.09 46.17 46.82 46.87 48.26 49.83 50.24 50.98 55.18 56.56 57.76 57.00 56.44 56.58 56.54 56.26 56.87 55.87 55.00 55.08 55.19 55.60 55.11 54.51
46.36 47.60 49.83 50.57 50.03 48.08 45.71 47.59 49.38 44.29 45.64 46.59 48.88 50.41 49.55 48.47 48.56 50.56 48.13 46.94 49.50 51.23 48.99 48.04 44.55 42.75 43.85 45.70 46.24 46.98 48.11 47.82 48.21 49.78 49.40 50.98 53.50 51.97 54.72 56.99 57.86 57.08 56.82 56.52 56.54 56.52 56.25 56.68 56.04 54.63 54.72 55.45 56.17 55.92
50.05 50.32 51.97 52.35 50.40 45.88 46.40 45.94 50.51 46.29 44.32 45.55 46.53 46.40 48.09 48.92 50.01 49.38 45.94 48.02 48.44 49.00 46.98 46.08 45.07 46.58 46.43 48.15 49.41 49.66 50.41 50.86 50.18 49.05 49.38 52.65 55.56 53.80 55.82 56.70 56.60 57.30 57.06 56.68 56.06 52.55 55.36 54.97 54.92 54.81 55.47 55.65 56.76 55.78
47.74 48.42 51.72 48.63 48.01 46.91 44.66 44.85 45.48 45.31 45.56 44.80 46.12 45.65 45.08 46.98 47.34 45.31 46.22 47.57 46.22 45.26 44.52 47.56 47.77 48.96 50.49 51.88 53.14 52.48 51.88 51.31 50.02 50.69 52.08 53.42 55.07 56.56 57.26 57.60 57.30 56.76 56.34 55.95 54.97 54.73 52.82 54.33 53.83 54.09 52.98 53.17 55.53 56.52
45.11 49.73 47.39 48.74 46.80 49.16 49.33 49.06 46.24 46.21 45.66 45.60 45.04 45.54 44.07 46.12 46.05 44.93 45.79 46.32 45.77 47.18 48.52 48.88 50.27 51.23 51.83 52.13 53.02 53.87 54.05 54.05 54.33 54.60 51.02 52.29 54.53 55.35 55.49 56.58 56.46 55.61 55.23 55.69 55.64 54.52 54.42 54.19 54.57 53.91 53.06 52.47 51.60 52.93
47.78 47.97 47.16 48.44 49.16 44.28 43.02 48.58 45.89 45.74 44.36 44.15 46.53 46.88 46.54 47.05 48.17 46.51 45.40 47.00 47.72 51.19 51.89 52.07 52.35 52.83 51.88 52.74 53.09 53.18 53.79 53.32 52.74 53.42 54.05 54.09 55.43 55.43 55.83 56.58 56.78 55.75 54.73 54.48 54.78 54.48 53.59 49.64 51.51 53.86 54.09 54.56 53.97 53.68
49.69 45.94 44.90 45.04 46.31 42.09 46.57 44.33 45.41 44.01 43.25 42.18 43.53 45.31 46.05 44.94 46.46 44.20 44.64 46.37 48.80 50.86 50.90 51.20 51.84 50.94 51.29 51.62 50.74 51.66 52.85 53.16 52.48 53.99 54.49 54.68 54.61 54.73 55.73 56.00 56.28 56.02 55.74 55.66 53.85 52.92 53.31 53.57 51.22 54.26 54.13 54.12 54.43 53.75
41.54 41.24 41.28 35.95 43.93 43.67 42.66 42.41 42.58 42.74 41.63 42.25 42.42 44.26 45.22 44.99 42.28 41.90 41.72 45.00 46.68 48.22 49.91 50.97 50.82 50.15 49.31 50.20 51.21 51.86 53.33 53.88 53.38 52.54 52.54 54.34 52.89 52.12 51.38 50.45 50.15 51.23 52.41 52.66 52.36 52.96 53.08 53.21 53.99 54.73 53.95 52.83 52.95 52.24
39.55 43.97 40.43 44.16 43.46 43.39 43.01 41.57 41.98 42.27 42.44 41.97 42.61 43.86 43.25 42.81 42.57 40.65 43.28 45.69 46.55 46.44 47.70 48.40 48.96 49.75 50.28 51.43 50.45 50.51 50.48 51.06 51.15 50.81 50.84 51.29 50.36 48.87 47.13 47.00 46.97 47.28 48.01 49.55 50.46 50.80 50.86 51.53 52.52 54.06 53.83 53.75 45.50 51.28
37.27 41.84 44.03 46.06 44.91 44.76 44.16 45.33 45.10 42.85 41.80 41.29 43.15 42.18 42.11 40.78 42.08 43.86 46.86 48.53 49.55 50.22 50.64 50.95 50.25 49.61 49.49 49.63 49.81 50.47 51.57 50.99 51.50 50.97 49.89 49.35 49.00 48.81 48.38 47.64 47.00 47.95 48.85 50.30 50.45 50.65 49.89 49.67 49.71 49.64 49.38 50.63 52.56 50.45
44.62 44.43 43.20 44.83 45.31 45.94 44.51 46.49 45.02 43.60 42.57 43.60 43.20 40.89 40.35 43.27 42.71 48.10 49.22 51.22 51.45 51.60 51.11 51.39 50.40 50.46 50.10 49.09 49.19 48.87 50.06 50.02 50.80 51.01 51.35 51.14 50.16 49.89 49.46 47.67 47.23 42.98 48.50 49.76 50.50 50.77 50.67 50.75 50.68 50.93 51.54 51.31 51.88 52.37
44.09 46.77 46.23 44.74 45.45 46.87 47.80 45.68 44.27 44.47 46.11 45.38 43.32 42.03 43.69 46.84 49.74 50.74 52.22 53.11 52.72 51.30 49.00 48.80 49.47 49.73 49.51 48.50 48.46 47.41 47.56 48.91 49.76 47.94 46.97 46.31 47.39 49.80 50.03 50.38 50.01 49.08 48.67 48.20 41.82 45.36 50.04 49.64 50.12 50.40 50.94 50.44 50.69 50.27
43.83 47.19 45.34 45.30 44.67 43.85 46.60 46.85 45.90 46.72 47.55 47.62 47.39 46.66 46.94 47.91 51.85 53.78 53.38 52.71 51.32 49.67 49.33 49.62 49.98 50.17 48.49 47.27 46.61 47.66 47.19 47.67 48.61 48.14 46.63 46.24 46.80 47.83 47.83 48.65 49.05 48.66 49.76 51.00 50.74 50.90 45.51 49.77 49.10 51.81 50.76 50.47 50.23 50.26
46.21 46.40 45.31 45.02 44.45 45.88 47.74 48.42 48.81 49.36 48.84 47.94 47.88 46.09 45.84 47.71 52.22 53.56 53.40 52.53 51.49 50.68 50.38 49.66 50.25 49.98 49.35 48.04 46.92 46.74 47.11 48.30 48.66 49.30 48.89 48.23 48.02 47.79 47.87 48.93 49.29 50.12 50.47 50.36 49.32 48.77 48.56 47.74 47.67 48.16 50.00 50.33 50.11 49.34
45.97 45.28 45.19 44.01 44.88 47.40 48.95 49.99 47.74 47.02 46.55 46.08 45.74 46.61 47.01 46.69 46.40 49.93 53.09 52.59 50.96 50.47 49.69 51.20 51.50 51.96 52.30 51.90 51.02 50.37 44.55 48.75 48.77 48.93 49.32 48.66 48.65 48.61 48.28 47.61 47.80 48.25 48.26 47.63 47.37 47.22 47.03 46.59 46.55 47.03 46.95 47.77 48.80 49.27
45.46 45.91 46.16 46.15 45.82 46.07 47.78 47.20 46.28 45.45 45.17 44.95 45.46 46.24 46.01 45.73 44.98 48.43 52.93 53.42 51.76 50.60 50.74 51.48 52.24 52.98 54.07 53.31 52.81 52.42 47.25 49.68 47.49 42.80 42.86 43.12 43.17 44.29 46.65 47.18 47.94 48.39 47.79 46.69 46.15 45.80 45.35 45.52 45.38 45.82 46.27 45.95 45.57 45.58
MSLP
1021.43 1020.95 1020.47 1019.98 1019.50 1019.05 1018.59 1018.10 1017.63 1017.20 1016.78 1016.32 1015.92 1015.58 1015.29 1015.07 1014.95 1014.93 1015.05 1015.04 1015.25 1014.61 1012.10 1010.43 1009.58 1009.00 1008.64 1008.40 1008.23 1007.19 1006.67 1006.30 1005.88 1005.96 1006.17 1006.16 1006.22 1005.07 1004.70 1004.82 1005.19 1005.25 1005.87 1006.38 1005.87 1005.05 1004.35 1003.43 1003.75 1003.76 1003.61 1003.75 1003.86 1004.12
1021.29 1020.83 1020.33 1019.80 1019.29 1018.79 1018.32 1017.80 1017.33 1016.93 1016.53 1016.09 1015.65 1015.34 1015.10 1014.90 1014.77 1014.66 1015.01 1014.82 1014.87 1014.99 1011.74 1010.00 1008.74 1007.82 1007.54 1007.11 1007.59 1007.38 1007.17 1006.62 1005.91 1006.16 1006.40 1006.20 1006.05 1005.88 1005.36 1005.44 1005.14 1005.50 1004.45 1005.13 1005.14 1004.42 1003.77 1003.83 1003.86 1003.69 1003.77 1003.76 1003.73 1003.97
1021.03 1020.58 1020.08 1019.57 1019.04 1018.51 1018.01 1017.49 1016.96 1016.53 1016.15 1015.74 1015.35 1015.01 1014.77 1014.60 1014.48 1014.47 1014.38 1014.37 1014.67 1014.15 1011.41 1009.92 1007.58 1006.24 1006.23 1006.23 1006.56 1007.37 1006.49 1005.97 1005.91 1006.03 1006.54 1006.63 1006.57 1006.34 1006.25 1005.66 1005.33 1005.03 1004.65 1004.44 1004.99 1004.13 1003.43 1003.50 1004.21 1004.21 1004.04 1004.25 1003.80 1003.85
1020.77 1020.31 1019.80 1019.29 1018.76 1018.21 1017.67 1017.12 1016.55 1016.05 1015.64 1015.26 1014.93 1014.63 1014.37 1014.15 1014.05 1014.03 1014.10 1013.93 1014.23 1014.11 1013.06 1008.43 1006.49 1005.97 1004.59 1005.01 1005.44 1005.46 1005.69 1005.98 1006.02 1006.27 1006.62 1006.77 1006.94 1006.32 1006.24 1005.92 1005.48 1004.89 1004.46 1004.63 1004.25 1003.78 1003.59 1003.71 1004.16 1004.43 1004.08 1004.16 1004.20 1003.82
1020.52 1020.05 1019.52 1018.97 1018.41 1017.86 1017.30 1016.73 1016.17 1015.62 1015.11 1014.73 1014.40 1014.10 1013.86 1013.66 1013.56 1013.47 1013.30 1013.11 1013.30 1013.86 1012.84 1009.45 1006.87 1004.96 1004.53 1004.48 1004.80 1005.47 1006.03 1006.62 1006.82 1006.79 1006.73 1006.61 1006.38 1006.61 1006.12 1005.63 1004.85 1004.30 1003.93 1004.15 1004.04 1003.60 1003.75 1004.12 1004.25 1004.42 1004.47 1004.42 1004.19 1004.14
1020.22 1019.76 1019.24 1018.67 1018.07 1017.44 1016.84 1016.28 1015.69 1015.12 1014.61 1014.16 1013.73 1013.37 1013.17 1013.11 1013.11 1013.21 1012.89 1012.65 1012.55 1013.31 1013.09 1010.93 1007.24 1005.32 1004.49 1004.29 1004.78 1005.43 1005.97 1006.65 1006.99 1006.99 1006.71 1005.96 1005.37 1005.63 1005.93 1005.37 1003.61 1003.31 1003.32 1003.07 1003.11 1003.22 1003.76 1004.03 1004.04 1004.28 1004.45 1004.51 1004.57 1004.65
1019.84 1019.40 1018.92 1018.34 1017.70 1017.09 1016.44 1015.82 1015.15 1014.50 1013.91 1013.27 1012.82 1012.44 1012.34 1012.43 1012.76 1012.78 1012.44 1012.35 1012.44 1013.26 1012.79 1010.89 1008.41 1005.40 1004.41 1004.34 1004.98 1005.58 1005.90 1006.24 1006.48 1006.92 1006.51 1005.81 1005.54 1005.30 1005.36 1004.74 1003.06 1002.92 1002.81 1003.09 1003.40 1003.75 1004.20 1004.26 1004.19 1004.25 1004.47 1004.40 1004.62 1004.74
1019.45 1019.00 1018.51 1017.98 1017.37 1016.72 1016.03 1015.36 1014.68 1013.84 1013.03 1012.33 1011.76 1011.20 1011.32 1011.79 1012.20 1011.98 1010.88 1011.61 1012.35 1012.67 1012.01 1010.93 1008.53 1006.56 1004.56 1004.77 1005.01 1005.14 1005.72 1006.06 1006.14 1005.90 1005.73 1005.57 1005.46 1005.19 1005.08 1003.94 1003.02 1002.46 1002.76 1003.06 1003.30 1003.67 1003.97 1004.16 1004.15 1004.44 1004.44 1004.47 1004.72 1004.97
1019.01 1018.58 1018.07 1017.56 1017.03 1016.38 1015.69 1015.01 1014.20 1013.32 1012.38 1011.72 1011.28 1011.02 1011.33 1011.66 1011.66 1011.20 1010.23 1011.10 1012.13 1012.47 1011.52 1010.60 1009.27 1007.37 1005.16 1005.32 1005.16 1005.14 1005.34 1006.04 1005.76 1005.62 1005.62 1005.39 1005.47 1005.07 1003.91 1003.11 1002.62 1002.15 1002.27 1002.11 1002.89 1003.58 1003.96 1004.06 1003.94 1004.24 1004.15 1004.30 1004.72 1005.13
1018.50 1018.07 1017.61 1017.10 1016.53 1015.91 1015.28 1014.69 1013.96 1012.93 1011.89 1011.23 1011.35 1011.47 1011.39 1011.26 1010.95 1010.89 1010.86 1011.80 1012.19 1011.27 1011.07 1010.24 1008.94 1007.77 1006.36 1005.69 1005.45 1005.59 1005.55 1005.91 1005.82 1005.59 1005.34 1005.28 1004.80 1003.87 1003.75 1003.42 1003.01 1002.34 1002.16 1002.30 1003.11 1003.85 1004.15 1004.23 1004.37 1004.24 1004.11 1004.36 1005.04 1005.35
1018.00 1017.52 1017.09 1016.58 1015.99 1015.46 1014.94 1014.43 1013.87 1012.97 1011.90 1012.10 1012.38 1012.19 1011.72 1011.06 1010.89 1010.78 1010.72 1010.87 1010.70 1010.40 1009.67 1008.64 1007.84 1007.24 1006.17 1006.32 1006.27 1006.53 1006.34 1006.11 1006.34 1005.84 1005.48 1005.32 1004.84 1004.18 1003.49 1003.10 1002.49 1002.01 1001.80 1001.71 1001.63 1002.01 1002.78 1002.99 1003.62 1004.00 1004.40 1004.83 1005.13 1005.49
1017.43 1016.98 1016.52 1016.01 1015.47 1015.00 1014.51 1014.16 1013.80 1013.60 1013.53 1013.42 1013.50 1012.82 1012.17 1011.24 1010.67 1010.58 1009.87 1009.55 1009.40 1008.75 1008.27 1007.91 1007.12 1006.82 1006.40 1006.31 1006.44 1006.69 1006.71 1006.68 1006.39 1005.84 1005.65 1005.18 1004.61 1004.02 1003.47 1002.69 1002.22 1001.75 1001.32 1001.42 1001.62 1001.85 1002.08 1002.77 1003.32 1003.92 1004.42 1004.92 1005.36 1005.67
1016.87 1016.38 1015.89 1015.33 1014.88 1014.50 1014.03 1013.83 1013.64 1013.38 1013.01 1012.92 1012.91 1012.44 1011.78 1010.78 1010.28 1009.66 1008.84 1008.39 1007.92 1007.76 1007.79 1007.63 1007.15 1007.05 1006.57 1006.58 1006.79 1006.74 1006.80 1006.76 1006.17 1006.06 1005.64 1004.98 1004.38 1003.94 1003.33 1002.54 1001.91 1001.50 1001.00 1001.06 1001.33 1001.89 1002.13 1002.83 1003.44 1004.02 1004.55 1004.91 1005.34 1005.79
1016.27 1015.77 1015.30 1014.60 1014.27 1013.94 1013.77 1013.42 1013.09 1012.93 1012.93 1012.83 1012.52 1011.96 1011.47 1010.27 1009.53 1008.81 1008.17 1007.78 1007.53 1007.59 1007.68 1007.68 1007.39 1007.53 1007.07 1006.86 1006.92 1006.88 1006.76 1006.67 1006.49 1006.24 1005.60 1004.87 1004.39 1003.88 1003.41 1002.77 1002.25 1001.95 1001.39 1001.21 1001.32 1001.85 1002.42 1002.90 1003.67 1004.22 1004.55 1004.93 1005.40 1005.89
1015.69 1015.08 1014.58 1013.95 1013.73 1013.59 1013.22 1012.66 1012.27 1012.58 1012.68 1012.45 1012.20 1011.60 1010.74 1009.79 1009.27 1008.69 1008.17 1007.85 1007.72 1007.62 1007.67 1007.47 1007.47 1007.64 1007.40 1007.16 1007.01 1006.96 1006.81 1006.50 1006.21 1005.87 1005.35 1004.90 1004.32 1004.01 1003.60 1003.10 1002.64 1002.31 1001.93 1001.64 1001.70 1002.10 1002.81 1003.15 1003.71 1004.40 1004.77 1005.20 1005.52 1005.88
1015.25 1014.42 1013.91 1013.75 1013.65 1013.25 1012.77 1012.43 1012.36 1012.38 1012.26 1012.00 1011.57 1010.91 1010.09 1009.86 1009.14 1008.67 1008.47 1008.39 1008.05 1007.90 1007.78 1007.90 1007.75 1007.63 1007.26 1007.12 1007.13 1006.70 1006.63 1006.22 1006.03 1005.59 1005.30 1004.94 1004.36 1004.12 1003.67 1003.23 1002.83 1002.44 1002.03 1001.71 1001.99 1002.55 1003.05 1003.51 1003.90 1004.44 1005.06 1005.37 1005.52 1005.69
1015.01 1014.53 1013.70 1013.66 1013.34 1012.78 1012.26 1012.36 1012.19 1012.01 1011.68 1011.25 1010.55 1009.83 1009.76 1009.60 1009.38 1008.99 1008.69 1008.39 1008.15 1008.18 1008.04 1007.79 1007.60 1007.22 1007.33 1007.22 1006.99 1006.57 1006.43 1006.20 1005.99 1005.66 1005.40 1004.96 1004.48 1003.95 1003.41 1002.89 1002.48 1002.36 1002.26 1002.04 1001.70 1002.54 1003.44 1003.83 1004.11 1004.67 1005.26 1005.41 1005.56 1005.88
1014.96 1013.97 1013.66 1013.61 1013.39 1012.77 1012.34 1012.06 1011.88 1011.58 1011.17 1010.32 1010.06 1009.44 1009.33 1009.31 1009.12 1008.79 1008.56 1008.33 1008.39 1008.07 1007.84 1007.60 1007.41 1007.30 1007.39 1007.23 1006.95 1006.73 1006.49 1006.24 1006.11 1005.80 1005.36 1004.66 1004.04 1003.69 1003.23 1002.88 1002.57 1002.44 1002.62 1002.63 1001.93 1002.96 1003.79 1004.27 1004.36 1004.69 1004.93 1005.25 1005.63 1006.06
1014.21 1013.69 1012.97 1012.91 1013.30 1013.26 1012.81 1011.86 1011.65 1011.38 1010.61 1010.03 1009.47 1009.11 1008.95 1008.87 1008.66 1008.54 1008.48 1008.39 1008.18 1007.84 1007.77 1007.41 1007.31 1007.24 1007.28 1007.29 1007.16 1006.92 1006.65 1006.51 1006.10 1005.58 1005.06 1004.26 1003.80 1003.43 1003.02 1002.77 1002.76 1002.78 1002.86 1003.00 1002.97 1003.63 1003.81 1003.70 1003.90 1004.37 1004.80 1005.26 1005.52 1005.81
1013.44 1012.95 1012.45 1012.02 1012.62 1012.94 1012.72 1011.83 1011.26 1011.18 1010.58 1009.74 1009.39 1009.11 1008.88 1008.67 1008.44 1008.45 1008.42 1008.27 1008.04 1007.95 1007.82 1007.72 1007.74 1007.58 1007.46 1007.06 1006.84 1006.65 1006.30 1006.08 1005.87 1005.36 1004.75 1003.85 1003.43 1003.27 1002.87 1002.62 1002.78 1003.04 1003.14 1003.22 1003.53 1003.85 1004.47 1004.13 1004.26 1004.61 1004.83 1005.00 1005.20 1005.50
1013.17 1012.71 1012.52 1012.56 1012.70 1012.75 1012.45 1011.57 1011.11 1010.58 1010.02 1009.72 1009.08 1008.92 1008.84 1008.64 1008.59 1008.63 1008.52 1008.28 1008.23 1008.29 1008.17 1007.98 1007.74 1007.42 1007.16 1006.81 1006.53 1006.26 1005.98 1005.69 1005.40 1005.14 1004.64 1004.01 1003.56 1003.22 1002.91 1002.76 1003.07 1003.18 1003.32 1003.55 1004.05 1004.37 1004.39 1004.05 1004.36 1004.60 1004.74 1004.90 1004.96 1005.17
1013.24 1012.65 1012.55 1012.40 1012.33 1012.17 1011.79 1010.90 1010.58 1010.09 1009.97 1009.27 1009.02 1008.76 1008.73 1008.68 1008.70 1008.78 1008.67 1008.47 1008.49 1008.21 1008.02 1007.88 1007.55 1007.17 1006.83 1006.50 1006.26 1005.97 1005.62 1005.32 1004.91 1004.39 1004.08 1003.84 1003.61 1003.62 1003.49 1003.23 1003.33 1003.82 1004.15 1004.32 1004.64 1004.65 1004.57 1004.40 1004.53 1004.61 1004.81 1005.15 1005.25 1005.55
1012.92 1012.72 1012.46 1012.22 1012.13 1011.87 1010.74 1010.27 1010.16 1009.57 1009.48 1008.92 1008.65 1008.56 1008.56 1008.63 1008.73 1008.77 1009.01 1009.10 1008.94 1008.26 1007.96 1007.81 1007.58 1007.21 1006.90 1006.44 1006.13 1005.70 1005.14 1004.53 1004.64 1004.27 1003.93 1003.72 1003.83 1003.91 1004.06 1003.85 1003.98 1004.44 1004.79 1004.73 1004.71 1004.91 1004.83 1004.91 1004.96 1005.07 1005.31 1005.43 1005.65 1005.90
1012.43 1012.60 1012.33 1011.90 1011.71 1011.17 1010.24 1009.81 1009.43 1009.21 1008.87 1008.70 1008.52 1008.35 1008.50 1008.70 1008.80 1009.22 1009.71 1009.52 1009.18 1008.62 1008.52 1008.28 1007.82 1007.64 1007.15 1006.26 1006.16 1006.49 1005.41 1004.76 1004.99 1004.61 1004.61 1004.51 1004.79 1004.63 1004.41 1004.45 1004.55 1004.71 1004.89 1004.84 1005.01 1004.96 1004.88 1005.00 1005.12 1005.32 1005.59 1005.78 1005.95 1005.99
1012.94 1012.46 1012.26 1011.49 1010.91 1010.67 1009.93 1009.33 1009.04 1008.94 1008.81 1008.63 1008.54 1008.36 1008.54 1008.64 1009.02 1009.42 1009.55 1009.39 1009.16 1008.85 1008.32 1008.27 1008.25 1008.02 1007.45 1006.97 1006.71 1006.09 1005.85 1005.48 1005.10 1005.04 1005.12 1005.08 1005.12 1005.23 1005.13 1004.92 1004.99 1005.00 1005.04 1004.84 1004.84 1004.96 1005.16 1005.31 1005.47 1005.62 1005.67 1005.78 1005.83 1005.79
1012.51 1011.52 1011.24 1010.28 1009.87 1009.79 1009.26 1009.12 1008.82 1008.71 1008.65 1008.53 1008.45 1008.39 1008.48 1008.65 1008.86 1009.16 1009.12 1008.83 1008.85 1008.70 1008.22 1007.99 1008.27 1007.87 1007.48 1007.02 1006.51 1005.86 1005.63 1005.43 1005.44 1005.20 1005.22 1005.15 1005.08 1004.85 1005.02 1005.05 1005.18 1005.32 1005.05 1004.90 1005.10 1005.42 1005.62 1005.74 1005.70 1005.66 1005.75 1005.74 1005.62 1005.65
1011.77 1010.66 1009.89 1009.24 1008.98 1008.82 1008.69 1008.37 1008.33 1008.51 1008.61 1008.63 1008.59 1008.64 1008.63 1008.62 1008.61 1008.67 1008.48 1008.30 1008.26 1007.99 1007.93 1007.82 1007.78 1007.82 1007.48 1006.95 1006.28 1006.04 1005.48 1005.09 1005.06 1005.28 1005.17 1004.92 1005.01 1005.14 1005.22 1005.52 1005.78 1005.90 1005.52 1005.24 1005.31 1005.46 1005.83 1005.90 1005.84 1005.77 1005.69 1005.65 1005.63 1005.71
1010.44 1009.79 1009.31 1008.76 1008.62 1008.24 1008.21 1007.96 1008.05 1008.23 1008.46 1008.60 1008.78 1008.85 1008.77 1008.59 1008.44 1008.23 1008.00 1007.83 1007.86 1007.80 1007.84 1007.51 1007.34 1007.29 1007.15 1006.82 1006.63 1006.23 1005.85 1005.62 1005.51 1005.39 1005.23 1005.34 1005.39 1005.49 1005.64 1005.71 1005.71 1005.71 1005.83 1005.90 1005.87 1005.83 1005.74 1005.73 1005.66 1005.65 1005.69 1005.75 1005.54 1005.42
1009.54 1008.72 1008.50 1008.26 1007.99 1007.82 1007.52 1007.49 1007.60 1007.73 1007.82 1008.29 1008.67 1008.61 1008.54 1008.21 1008.02 1007.93 1007.77 1007.64 1007.65 1007.85 1007.97 1007.82 1007.49 1007.17 1006.96 1006.76 1006.49 1006.35 1006.14 1006.01 1006.07 1006.34 1006.41 1006.55 1006.39 1006.28 1006.25 1006.24 1006.32 1006.51 1006.67 1006.72 1006.69 1006.49 1006.26 1006.41 1006.33 1006.22 1006.12 1006.15 1006.14 1006.02
1008.36 1007.77 1007.77 1007.51 1007.43 1007.22 1006.72 1006.67 1007.03 1007.31 1007.66 1007.92 1008.06 1008.24 1008.19 1007.99 1007.64 1007.60 1007.63 1007.58 1007.70 1007.90 1008.04 1008.02 1007.87 1007.55 1007.44 1007.24 1007.23 1006.99 1006.79 1006.62 1006.57 1006.65 1006.87 1007.12 1007.34 1007.27 1007.07 1006.83 1006.89 1007.09 1007.04 1006.96 1007.10 1007.01 1006.74 1006.58 1006.57 1006.55 1006.63 1006.69 1006.73 1006.76
1007.06 1007.07 1007.02 1006.92 1006.83 1006.44 1006.31 1006.53 1006.90 1007.19 1007.61 1007.96 1008.08 1008.25 1008.26 1008.01 1007.54 1007.37 1007.42 1007.48 1007.73 1007.88 1008.05 1008.08 1007.89 1007.68 1007.50 1007.51 1007.57 1007.58 1007.60 1007.46 1007.35 1007.24 1007.35 1007.44 1007.58 1007.62 1007.57 1007.39 1007.26 1007.16 1007.24 1007.45 1007.63 1007.73 1007.78 1007.92 1007.99 1007.87 1007.70 1007.72 1007.79 1007.67
1006.56 1006.49 1006.47 1006.69 1006.56 1006.36 1006.41 1006.58 1006.99 1007.31 1007.73 1007.98 1008.19 1008.21 1008.18 1008.06 1007.91 1007.52 1007.25 1007.39 1007.71 1007.83 1007.79 1007.96 1007.89 1007.75 1007.58 1007.44 1007.49 1007.53 1007.50 1007.57 1007.66 1007.60 1007.54 1007.65 1007.78 1007.80 1007.76 1007.69 1007.62 1007.59 1007.64 1007.89 1008.06 1008.23 1008.35 1008.37 1008.32 1008.33 1008.41 1008.46 1008.43 1008.43
1005.98 1005.97 1006.08 1006.32 1006.45 1006.54 1006.70 1006.75 1007.04 1007.40 1007.60 1007.83 1007.91 1007.89 1007.99 1008.07 1007.86 1007.39 1007.11 1007.12 1007.28 1007.17 1007.37 1007.47 1007.44 1007.35 1007.39 1007.29 1007.24 1007.30 1007.37 1007.45 1007.46 1007.46 1007.52 1007.48 1007.49 1007.65 1007.89 1008.02 1008.03 1008.00 1007.92 1008.04 1008.23 1008.51 1008.76 1008.89 1008.97 1008.99 1009.04 1009.07 1009.08 1009.01
Wind_Speed
15 16 17 17 18 17 17 18 18 17 16 16 15 13 11 10 9 4 3 4 3 3 8 8 5 5 3 2 2 5 5 3 2 1 4 5 5 3 2 3 4 5 5 1 1 4 1 2 3 5 6 3 2 0
16 17 17 18 18 18 18 18 18 18 17 16 15 13 11 9 8 6 2 1 1 3 8 4 7 13 16 8 5 2 3 3 4 3 1 2 1 1 2 3 0 3 7 7 8 7 3 1 1 2 2 4 3 2
15 16 17 18 19 18 19 19 20 19 17 16 14 13 11 9 8 4 3 2 0 4 8 2 9 8 12 21 11 4 4 5 2 3 3 1 2 4 2 5 2 2 2 5 3 4 7 2 4 4 3 5 4 3
15 16 17 18 19 19 19 20 20 20 18 16 14 13 12 11 9 6 2 1 1 2 3 9 3 6 4 7 18 22 1 4 3 2 2 3 1 2 3 4 3 2 3 3 2 5 5 4 7 4 3 4 5 4
15 16 17 18 20 20 21 20 21 20 19 17 16 14 13 11 9 6 5 5 5 2 4 8 12 5 5 7 12 14 14 2 2 3 2 2 3 3 1 1 3 5 7 5 6 5 4 0 5 5 3 2 4 4
16 17 18 19 20 21 21 21 23 22 20 19 18 17 14 10 6 2 4 2 6 4 2 6 5 6 4 4 7 8 7 3 1 3 4 3 2 3 2 3 6 4 5 6 3 3 5 3 3 3 4 3 3 3
16 17 18 19 20 21 22 22 23 23 21 21 20 17 11 8 3 4 3 0 7 3 2 6 6 6 4 3 3 3 4 4 4 3 3 4 3 5 2 2 4 5 7 5 3 5 2 3 3 3 4 4 5 1
16 17 18 19 20 21 22 22 23 23 23 22 21 17 8 6 4 4 4 14 5 3 2 3 6 6 5 3 2 2 4 1 2 3 0 2 2 2 3 9 8 6 5 5 8 5 4 4 4 3 5 4 4 5
16 17 18 19 20 21 21 22 23 23 23 21 9 7 4 2 2 3 2 14 1 2 2 2 2 5 5 2 1 2 2 2 1 2 2 4 1 4 9 10 9 10 10 9 8 6 5 3 4 0 4 6 7 5
17 18 18 19 20 20 21 21 22 24 25 9 1 2 1 0 9 7 1 4 2 3 1 4 1 5 1 3 2 2 2 1 0 2 1 2 5 4 4 6 9 9 8 10 6 4 5 4 7 5 5 5 5 5
17 18 19 20 21 21 21 20 18 21 9 5 5 3 4 10 2 1 2 3 2 3 4 5 5 3 1 0 2 2 0 2 1 4 1 2 3 3 6 9 9 8 10 13 5 8 9 10 9 6 6 6 5 6
17 18 19 20 20 20 17 15 12 4 1 3 4 4 4 2 1 2 4 1 4 4 2 3 2 4 3 1 2 2 1 2 4 3 1 2 3 5 9 15 12 10 7 9 6 10 11 11 9 9 8 6 6 6
18 18 19 20 19 19 14 10 10 10 8 1 2 3 0 2 1 4 3 2 1 1 2 3 4 1 3 3 2 2 1 4 2 1 3 4 3 7 10 14 9 6 5 9 8 8 10 11 10 8 8 5 7 6
18 19 19 22 20 13 11 15 13 5 1 1 3 5 2 4 4 3 3 2 1 0 2 2 1 1 2 2 1 0 1 1 2 1 4 3 4 8 10 10 5 4 3 7 10 12 13 14 10 8 8 8 7 6
18 20 21 17 3 12 19 19 7 3 2 0 1 2 2 3 5 4 3 3 3 1 2 3 2 2 3 1 0 1 1 3 3 3 3 3 7 7 9 10 9 4 2 5 6 10 10 11 10 7 6 6 6 6
18 19 2 4 11 18 18 4 0 1 1 1 3 3 4 2 4 4 3 3 2 2 1 2 2 2 4 2 1 5 1 4 3 3 3 5 7 6 8 7 6 3 4 7 7 6 8 9 10 8 6 5 5 5
13 5 4 11 19 21 8 1 1 2 2 2 4 4 3 4 4 3 1 3 1 2 2 0 3 4 1 2 3 3 3 2 3 5 3 5 7 8 7 7 4 3 2 6 10 9 4 5 7 6 7 5 5 5
5 6 15 16 14 6 2 1 1 1 4 3 2 3 1 2 2 3 3 1 1 2 2 3 2 2 2 3 3 3 3 4 3 4 5 8 8 6 5 2 2 5 4 3 7 7 5 7 7 5 6 6 6 5
10 13 23 20 5 2 3 2 1 2 5 3 3 3 2 3 3 3 2 3 3 2 2 2 2 1 1 0 2 6 7 5 5 8 7 7 5 6 4 2 4 5 7 4 7 2 3 7 6 5 5 4 4 4
18 15 11 6 9 2 3 4 1 1 4 3 2 3 2 2 2 2 2 3 2 1 1 2 1 2 3 3 4 6 7 5 5 7 6 4 3 4 4 3 4 4 4 7 5 6 2 3 3 4 4 4 4 4
7 3 1 1 1 1 2 2 3 4 3 2 2 1 2 2 2 3 3 1 2 1 2 1 3 4 5 5 5 3 4 3 2 3 4 4 3 3 2 5 8 5 3 5 3 2 3 4 4 3 4 3 2 3
4 6 1 1 1 2 4 4 3 2 1 3 3 0 2 2 2 2 3 3 1 3 2 2 3 4 4 4 4 4 5 5 6 4 5 1 2 2 3 3 7 6 3 1 1 1 2 3 3 3 4 4 4 4
5 2 2 1 1 1 8 1 2 2 2 3 2 2 1 1 2 2 3 2 2 3 3 2 3 3 4 5 6 7 7 5 2 4 6 4 5 5 3 4 4 4 2 3 2 1 1 3 4 4 4 4 3 1
2 1 2 2 4 5 2 2 2 2 2 3 3 3 2 1 2 4 3 3 3 3 2 4 5 9 8 9 0 2 5 7 4 4 4 5 5 3 3 2 0 1 3 2 3 3 3 4 5 4 4 3 2 2
4 5 3 5 3 2 3 3 3 2 2 2 3 1 1 1 2 2 3 3 2 4 5 3 4 3 5 3 5 5 2 1 3 4 2 2 2 2 1 2 2 1 1 3 3 3 3 3 3 3 3 3 3 3
3 5 7 5 2 3 3 2 2 3 2 2 2 2 1 1 2 2 3 3 2 3 5 5 1 4 3 3 4 4 3 1 3 3 1 1 2 3 4 5 4 5 3 3 4 5 5 4 2 3 1 2 2 1
4 5 4 3 2 1 2 2 1 1 2 1 2 3 3 2 0 3 2 3 3 3 2 3 2 3 4 5 4 3 4 3 4 4 2 4 4 4 4 5 6 1 3 5 5 6 6 5 5 4 3 2 1 2
6 3 5 3 3 2 3 2 2 2 2 2 2 1 1 2 2 2 4 2 3 1 3 4 3 3 2 2 3 4 3 3 4 3 3 5 5 4 5 4 4 6 5 4 4 4 4 4 4 3 1 1 3 3
4 3 3 3 2 3 4 5 4 3 4 4 4 2 3 3 1 1 2 2 0 2 3 3 4 3 3 3 4 4 4 4 5 8 7 3 5 5 6 3 4 4 4 5 9 7 6 5 4 4 5 3 3 3
5 5 3 3 4 4 3 5 3 2 1 3 3 1 2 2 2 2 1 1 2 3 1 0 2 2 3 4 3 6 5 4 4 4 5 2 0 3 3 4 6 4 3 5 6 5 9 7 8 7 7 6 6 6
2 3 2 3 3 3 3 3 2 3 2 2 1 2 2 2 3 1 1 2 3 2 2 2 3 2 4 4 4 4 4 4 4 5 5 4 3 3 3 3 3 4 5 7 7 6 6 6 5 6 7 7 7 7
4 6 5 3 3 1 2 2 2 2 1 2 1 2 2 3 2 3 1 3 3 2 3 2 1 1 1 2 2 2 3 2 3 3 5 4 4 4 4 3 3 4 6 7 6 5 6 5 5 6 6 9 9 9
2 2 2 3 2 1 1 3 2 2 2 2 2 3 3 4 4 4 2 2 3 4 5 4 4 3 3 1 1 1 4 3 4 6 7 8 7 6 4 3 3 3 7 7 7 7 7 7 5 6 6 6 6 5
Wind_Direction
335 336 337 337 338 339 338 341 340 337 334 332 330 329 329 331 337 338 265 191 152 245 273 212 219 207 280 198 198 277 358 294 347 92 142 189 198 218 114 156 205 153 120 105 101 87 222 96 101 161 205 203 181 216
332 331 332 332 333 334 336 337 336 335 332 329 326 324 321 319 316 328 291 302 109 214 256 260 233 236 218 198 152 261 225 276 229 90 236 110 82 38 72 237 133 227 169 177 164 207 220 259 170 267 200 198 196 197
326 327 327 328 329 329 331 332 334 333 330 326 322 319 314 308 294 276 265 266 25 275 287 336 232 257 220 230 214 174 276 228 242 165 167 128 156 120 181 256 203 198 239 118 118 226 221 168 296 262 201 258 224 220
320 323 324 324 324 325 328 330 332 331 329 324 318 312 307 301 288 265 226 147 183 265 284 281 302 281 241 170 196 211 128 21 87 90 114 127 178 155 209 227 214 229 111 149 298 279 2 253 216 251 292 270 260 269
314 317 319 320 321 323 325 327 329 328 326 323 318 312 304 297 290 274 246 213 203 158 269 285 309 252 248 191 193 200 217 174 352 2 64 220 159 186 251 38 264 192 177 155 213 204 145 220 117 158 174 256 271 281
312 315 317 318 320 322 324 326 328 327 320 314 310 304 297 287 297 303 314 191 196 174 277 310 292 286 307 170 164 182 178 123 167 181 227 263 297 117 152 229 259 201 199 180 193 155 149 139 133 184 201 194 183 120
309 312 314 317 319 321 322 325 329 324 315 306 305 303 281 248 196 201 199 75 160 115 247 296 306 280 308 112 96 106 131 182 150 216 232 191 217 152 156 242 275 235 219 186 148 122 99 161 221 217 231 228 175 38
307 310 312 315 317 320 321 325 325 319 313 311 314 300 249 205 222 287 245 196 145 187 251 279 274 325 6 0 64 120 122 158 212 207 91 180 54 109 226 247 263 276 141 171 189 187 146 150 143 218 210 202 156 139
304 307 310 312 315 317 319 324 324 320 316 320 336 108 93 146 160 299 213 143 119 216 265 301 271 276 356 336 288 31 110 144 220 194 219 116 166 209 224 225 237 212 191 215 141 145 133 160 137 123 150 135 138 130
305 306 308 311 313 315 318 324 325 319 320 328 42 337 28 154 321 160 355 116 237 254 215 236 209 264 60 358 346 356 39 86 251 262 71 146 238 334 23 298 275 275 181 136 108 157 170 174 176 173 148 101 130 152
303 305 308 310 311 316 320 322 324 323 354 18 8 337 304 310 92 148 203 192 200 247 200 236 214 251 344 71 256 32 223 354 358 264 132 222 268 270 295 302 299 291 195 196 185 143 165 158 158 143 135 139 119 108
302 306 307 308 312 319 323 320 328 5 301 275 293 294 298 318 91 215 224 188 198 235 173 260 271 218 294 77 104 2 101 41 248 318 40 281 265 279 313 316 307 292 217 179 148 146 148 147 149 143 140 139 135 130
302 305 308 307 312 316 313 311 307 295 301 225 208 263 45 244 211 211 229 263 313 206 311 330 326 320 349 47 57 73 90 237 334 7 240 226 271 308 318 321 315 301 168 138 125 136 139 131 127 141 146 149 144 142
303 306 308 307 312 304 315 326 321 323 292 69 331 337 346 319 287 243 251 204 241 122 312 219 309 344 314 17 115 258 241 43 302 264 244 262 294 317 318 330 329 336 112 129 130 138 139 138 138 146 152 154 145 150
308 308 311 304 289 338 330 326 314 154 176 178 250 57 319 257 256 269 277 356 359 341 355 345 338 109 294 306 336 44 229 251 220 238 247 284 310 320 318 328 326 313 159 124 121 131 140 142 143 142 147 148 141 141
316 316 254 235 330 328 325 335 162 125 185 224 210 276 262 278 300 354 358 323 326 341 53 73 297 313 256 179 179 226 212 228 248 238 278 310 303 300 321 304 314 286 162 131 113 124 144 147 147 150 149 149 149 143
317 240 282 333 331 326 313 222 202 232 249 241 247 207 234 258 242 260 229 265 350 350 258 248 248 230 37 283 252 196 214 234 286 305 305 280 284 295 301 302 292 186 167 151 129 109 169 148 128 124 138 159 144 145
245 277 304 315 329 304 299 216 239 263 269 254 275 289 234 238 278 276 283 294 301 245 181 236 297 224 251 279 293 302 312 305 283 280 286 301 306 303 293 7 36 76 95 122 97 117 165 163 156 171 145 149 127 135
272 292 298 301 286 320 321 288 174 262 251 262 269 258 233 240 248 277 287 308 240 245 270 285 274 313 340 225 288 304 302 296 302 311 296 283 304 296 299 95 87 76 79 61 72 139 209 176 161 143 139 149 146 152
294 290 299 293 160 139 295 272 174 234 270 259 282 281 253 242 290 308 324 339 348 335 357 25 169 257 253 261 264 275 288 285 281 298 303 303 335 316 293 95 78 82 90 75 60 57 245 106 97 138 148 155 150 171
321 274 97 115 125 197 240 279 257 216 274 275 279 334 293 326 347 356 322 319 68 61 309 248 248 265 262 266 271 281 281 266 254 249 282 299 328 331 47 123 104 87 73 77 42 265 214 129 146 147 136 137 148 168
261 296 287 227 254 206 260 222 225 265 247 256 315 23 305 348 335 327 300 33 6 260 228 272 289 294 292 306 313 286 279 284 299 281 279 274 57 72 39 55 110 86 70 132 286 337 360 74 99 95 101 89 71 73
293 201 263 256 283 23 263 129 257 209 252 273 314 291 345 8 337 343 50 30 288 319 360 5 314 293 295 313 326 332 325 324 3 350 13 23 59 47 47 60 70 98 81 297 324 276 88 89 93 92 91 83 89 92
251 271 246 231 171 260 318 266 234 289 292 335 324 324 52 347 6 59 25 330 292 290 328 349 359 4 350 326 120 168 291 314 319 16 29 60 63 357 319 306 330 141 184 172 186 156 118 92 98 97 109 123 157 150
52 280 130 283 234 256 265 303 300 351 280 311 315 343 1 43 85 107 194 255 240 282 282 303 314 257 262 296 286 314 19 187 45 28 25 124 121 98 53 9 22 350 276 154 97 108 97 103 113 141 157 171 200 239
252 230 172 216 210 176 223 240 238 244 260 287 292 293 39 90 103 193 227 228 227 237 267 276 263 317 306 278 309 325 338 301 196 128 35 266 195 127 108 85 65 24 12 80 100 86 85 94 131 170 234 271 348 125
243 258 230 230 190 143 282 246 153 144 264 281 321 2 9 346 217 251 266 235 231 233 239 280 279 244 264 302 303 341 328 36 69 109 157 80 73 83 82 89 75 340 340 75 80 87 90 76 70 65 52 46 267 193
227 233 195 194 190 191 225 238 214 207 212 209 70 339 275 243 247 229 215 231 233 314 313 304 264 224 252 301 337 337 16 23 80 54 33 47 40 41 44 72 81 84 68 49 94 89 92 110 113 116 126 250 246 244
233 233 157 221 212 205 223 199 207 222 176 138 154 221 245 237 231 220 242 228 117 118 69 17 348 353 41 35 36 29 22 28 83 84 75 33 9 2 10 40 81 59 60 68 41 46 60 56 25 26 8 6 330 331
247 170 178 189 173 221 245 167 187 151 138 156 148 58 346 292 244 195 243 252 119 110 127 59 300 60 78 68 33 23 18 28 45 117 127 120 319 324 343 72 78 73 67 69 58 39 27 38 35 35 39 40 36 44
171 157 140 151 218 238 207 137 88 84 83 73 46 127 210 278 302 344 131 147 128 106 75 24 21 356 94 85 86 72 37 12 36 84 99 100 84 62 51 72 114 114 87 75 66 56 51 44 40 43 43 46 43 56
168 186 154 167 245 314 123 93 105 101 83 74 355 9 355 30 351 298 224 131 118 162 241 216 235 278 238 158 148 222 198 153 146 140 130 126 134 150 147 126 83 77 97 100 99 88 69 54 40 41 47 46 44 40
107 124 115 104 94 147 293 105 105 96 69 156 204 191 201 185 228 252 298 214 198 192 193 199 224 239 240 180 128 150 162 183 193 174 172 162 170 165 137 133 125 98 97 97 96 92 78 65 48 50 66 68 58 43